Wind_Speed
19 18 18 18 18 17 17 16 15 14 13 12 13 13 14 15 15 15 14 13 12 10 8 7 5 3 2 2 2 4 5 5 8 9 7 2 5 3 2 2 1 4 6 7 10 12 9 10 10 11 10 8 8 7 11 10 7 6 6 8 8 8 9 10 11 11 8 12 15 2 12 7 5 4 2 4 10 9 9 9 9 15 11 7 11 5 21 23
19 19 19 19 18 17 17 16 15 13 12 13 13 14 15 16 16 16 14 12 10 8 7 6 4 2 2 3 4 6 7 10 14 7 3 4 3 2 1 1 3 5 7 10 14 12 9 8 8 10 8 7 7 8 9 8 7 7 6 7 8 9 10 12 11 10 8 11 16 6 10 6 4 6 7 7 12 9 6 7 7 12 12 10 15 10 9 19
19 19 19 19 18 17 17 16 14 12 12 13 14 15 17 17 17 16 13 11 8 7 7 6 4 2 3 4 5 6 9 13 12 1 7 4 4 3 0 0 3 5 8 14 16 11 8 10 7 6 7 7 6 7 7 6 7 7 7 6 9 10 10 12 7 9 11 10 13 13 9 6 4 4 6 7 11 11 8 7 9 10 10 11 12 11 11 14
19 19 19 19 18 18 17 14 12 12 13 14 15 16 17 18 17 15 12 9 7 6 6 6 3 3 4 5 6 6 9 12 3 7 6 4 4 1 0 1 3 5 9 15 13 9 8 9 7 6 8 7 7 8 6 6 6 7 7 7 11 8 5 9 6 7 11 11 10 11 11 9 7 6 7 7 9 9 9 8 11 14 11 9 8 8 10 8
20 19 19 19 19 18 16 13 12 12 13 14 16 17 18 18 16 14 10 7 5 5 5 6 4 4 4 6 6 6 9 6 4 8 5 4 3 1 2 2 4 4 9 13 10 8 8 8 8 8 7 7 9 7 7 9 6 6 8 7 13 12 7 9 8 7 6 10 11 11 10 10 9 9 9 10 10 7 9 10 10 11 10 9 8 7 2 5
20 20 20 19 19 17 14 12 12 13 14 15 17 19 18 17 15 11 7 5 4 5 5 5 4 5 6 7 7 6 7 2 6 6 5 3 1 0 2 2 4 6 10 14 13 10 8 8 8 8 6 7 10 7 9 9 6 4 9 8 12 13 8 7 9 6 5 6 10 11 10 10 10 9 8 10 11 9 11 13 13 11 9 12 12 12 7 9
21 20 20 20 19 16 13 13 13 14 15 17 19 19 18 16 13 9 5 3 4 4 5 6 5 6 6 7 7 7 8 1 8 7 5 2 0 1 3 2 6 12 13 14 11 8 7 8 8 7 7 8 9 8 6 3 2 4 8 11 12 9 6 7 10 7 4 6 8 9 9 10 10 9 8 10 11 11 10 10 12 13 11 11 11 12 8 8
21 21 20 19 18 15 13 13 13 15 17 19 21 20 17 13 10 6 3 2 3 4 6 7 7 6 6 5 6 8 5 5 9 7 3 1 0 3 6 7 10 11 11 8 5 6 5 7 8 4 6 7 3 4 2 2 6 9 10 12 9 5 4 6 9 9 8 7 6 8 9 11 10 9 10 11 11 7 5 7 9 10 9 7 7 9 8 7
22 21 20 19 17 15 13 13 13 15 18 20 22 20 16 11 7 4 2 2 3 5 6 8 8 6 6 3 7 6 3 7 6 7 3 0 2 4 8 10 8 8 9 4 4 7 5 5 6 5 6 7 6 6 4 1 5 6 9 10 5 4 5 6 8 9 8 6 6 9 10 11 10 10 9 11 13 9 6 9 9 8 7 7 6 7 8 8
22 21 20 19 17 15 13 13 14 17 19 21 22 18 12 8 5 3 2 2 3 5 6 8 8 7 6 5 9 4 5 4 3 6 2 1 4 5 8 7 4 7 9 3 4 7 5 6 6 5 7 7 6 7 6 4 4 6 8 9 8 8 8 8 9 9 7 6 9 10 11 11 9 8 7 10 12 10 9 8 5 6 5 4 5 6 7 7
23 21 20 19 17 15 13 13 15 18 20 22 21 15 9 5 3 2 1 2 3 5 7 8 8 8 6 8 8 2 2 2 1 3 2 1 5 5 6 5 4 8 8 4 4 4 6 7 7 6 4 4 5 6 6 6 6 7 8 10 10 11 10 10 10 10 7 7 9 10 11 11 11 10 8 11 6 3 4 5 3 6 4 5 6 6 5 6
24 21 20 19 17 14 13 13 15 18 21 21 19 12 5 3 2 1 1 3 4 5 7 8 8 8 7 9 4 4 1 1 1 2 2 3 5 2 4 3 4 7 8 8 2 2 5 6 6 8 4 4 5 5 3 2 4 7 8 9 11 12 11 12 9 8 7 5 4 5 8 9 12 11 11 15 5 7 2 4 4 5 5 5 5 5 4 5
24 21 19 19 18 15 13 14 16 18 21 20 15 9 3 1 1 1 2 3 4 6 7 9 8 6 7 5 4 3 4 1 2 1 3 2 3 2 0 2 4 5 5 8 6 3 4 5 7 10 7 6 6 4 5 3 5 7 8 7 8 10 11 11 8 7 5 2 1 3 6 9 11 15 14 11 2 8 4 4 5 4 3 2 4 5 5 4
24 21 19 19 18 16 14 15 17 18 20 18 12 7 2 1 1 0 2 3 4 6 7 9 9 5 7 1 7 2 3 3 4 4 3 4 5 6 3 2 3 4 3 5 7 3 4 5 7 8 6 7 6 5 4 6 6 6 8 7 7 8 4 10 10 6 4 6 4 7 6 8 4 11 9 5 9 7 4 6 6 4 2 1 3 4 6 5
24 21 19 19 18 16 14 16 17 18 19 16 10 5 2 3 2 1 3 3 4 6 8 11 9 5 6 3 6 4 2 6 4 1 3 6 7 4 4 3 2 2 3 4 5 3 4 5 6 8 6 7 6 6 6 6 7 6 6 5 5 5 4 11 9 6 4 4 3 7 6 6 3 8 5 9 8 4 3 7 6 5 4 3 4 4 6 5
25 21 19 19 19 17 14 16 17 17 17 13 7 4 2 4 4 4 4 4 5 6 6 9 10 11 6 1 7 4 6 6 1 1 2 5 8 4 1 4 3 3 4 4 4 3 5 6 6 8 6 5 7 7 6 5 5 5 5 4 2 3 2 7 7 7 5 1 3 6 6 4 2 5 8 10 6 4 5 6 5 5 5 5 5 3 4 3
25 21 19 19 20 18 15 17 17 16 15 11 7 4 2 4 5 5 5 7 7 7 8 10 12 11 4 1 5 4 3 1 4 3 2 2 5 5 3 7 6 5 5 4 4 5 7 6 6 6 5 5 5 6 4 3 4 2 3 4 4 5 4 1 6 7 5 2 5 7 6 5 3 3 9 11 11 8 6 5 4 5 4 6 4 5 6 4
26 22 19 18 19 19 15 17 17 14 14 10 6 7 4 5 6 7 7 7 6 7 10 12 13 7 2 3 2 1 3 3 4 2 3 2 3 4 5 5 4 3 6 6 6 7 6 5 6 4 3 3 3 4 3 2 4 5 3 3 4 4 5 5 3 5 4 5 5 5 6 7 7 4 5 10 8 5 5 4 4 5 3 6 6 7 9 7
26 22 19 18 19 19 15 16 15 13 14 8 6 10 8 6 6 8 9 8 5 5 4 5 8 3 3 1 3 3 4 2 4 4 5 3 3 5 6 5 4 5 7 6 8 7 4 5 4 2 3 3 2 3 5 5 6 8 6 5 6 4 5 7 1 5 5 4 5 6 7 8 10 8 9 10 4 1 6 4 4 5 4 6 7 7 7 8
27 22 20 18 18 19 16 15 13 11 13 11 10 10 7 3 2 3 7 10 7 7 5 1 3 3 3 3 4 3 2 4 7 3 2 2 3 7 9 9 7 6 6 4 4 4 2 5 3 0 3 3 5 6 6 8 8 9 8 6 8 8 6 6 7 6 5 1 5 8 9 10 11 9 8 8 8 7 8 6 5 5 5 5 5 7 10 9
27 22 20 18 18 19 16 13 12 10 12 13 13 8 3 5 3 2 3 7 5 6 6 3 5 4 4 5 8 6 6 8 6 3 2 4 6 9 6 6 5 4 4 6 4 1 0 4 3 3 3 5 7 7 6 7 8 8 8 7 8 7 3 6 11 8 2 1 5 7 10 10 9 8 7 6 7 7 6 3 3 5 6 7 11 14 15 12
28 23 19 18 18 20 16 12 10 10 11 12 10 6 7 9 7 6 6 6 3 3 5 2 7 4 6 3 6 7 8 6 3 4 2 2 7 7 2 2 5 4 4 5 4 1 2 2 3 3 5 6 8 7 6 7 8 8 7 8 5 4 5 7 11 12 4 2 5 7 10 8 7 8 10 7 4 5 6 8 10 11 10 10 12 12 12 12
28 23 18 17 18 20 18 13 11 9 10 10 8 8 9 9 8 8 6 7 3 5 8 4 6 2 5 3 2 4 9 6 2 3 3 4 7 4 3 6 5 2 2 4 3 1 1 2 2 4 5 6 9 7 6 6 7 7 4 5 3 4 5 3 6 8 6 5 5 7 6 6 10 12 12 8 6 10 11 14 13 12 11 12 12 12 12 12
28 24 17 17 18 20 20 17 12 9 8 8 10 10 10 9 10 10 6 6 4 4 3 2 3 3 5 4 3 5 9 6 1 4 5 7 8 4 5 8 3 2 4 6 3 1 2 2 3 5 5 6 8 7 5 4 5 4 6 7 6 4 5 4 4 5 7 6 4 8 6 5 10 11 9 7 8 11 11 12 11 10 10 10 10 11 11 11
28 24 17 16 18 20 22 15 9 9 8 6 10 11 11 10 9 9 6 5 3 2 2 3 2 1 4 4 4 6 6 4 1 5 5 7 9 6 5 6 3 1 4 5 4 1 1 2 3 5 6 5 7 5 4 4 5 5 5 7 11 10 9 8 8 6 6 3 5 6 2 3 6 5 5 3 6 8 9 11 10 10 10 9 9 10 11 11
27 24 16 14 17 20 17 8 9 15 8 6 11 12 11 9 9 8 5 4 3 1 1 1 2 2 3 3 3 6 5 0 1 3 3 3 5 8 5 3 2 2 4 4 4 2 1 2 3 4 5 6 5 1 6 6 5 3 3 7 11 11 10 10 9 7 5 2 2 2 3 1 4 4 6 3 6 7 8 10 10 9 9 10 9 10 10 10
27 23 16 12 15 18 11 6 14 16 7 8 13 12 10 9 8 6 4 4 3 2 1 1 2 2 3 2 3 8 4 2 1 3 4 2 4 7 6 4 4 2 3 3 1 2 3 3 3 4 5 5 3 2 6 7 5 3 3 8 9 10 10 9 7 6 2 3 2 2 4 3 2 2 5 6 6 7 8 8 8 8 9 9 9 9 10 11
27 23 15 11 13 12 8 8 14 11 8 12 13 11 10 8 6 4 3 2 1 1 1 2 3 4 4 2 3 7 3 1 3 3 3 4 4 7 6 5 6 4 3 4 2 4 6 3 3 6 6 3 3 4 4 5 6 4 4 7 7 8 9 7 6 5 1 3 0 4 6 4 3 2 2 6 7 7 8 8 8 10 11 10 9 10 11 12
27 22 13 11 11 9 8 9 10 9 10 12 11 10 9 6 4 3 3 2 1 1 1 1 1 3 5 5 5 5 2 1 1 2 3 4 3 6 5 4 6 8 5 4 2 3 3 3 4 6 5 4 6 6 5 6 7 6 7 9 8 8 9 6 4 3 1 1 3 3 4 6 3 1 2 4 6 7 7 7 9 11 11 11 10 11 12 12
26 21 11 10 10 9 10 8 7 10 11 10 11 10 7 4 3 3 2 1 1 1 3 3 3 4 6 7 5 3 3 1 0 1 2 3 3 6 3 1 3 7 5 5 2 2 2 1 3 3 4 6 7 8 9 8 9 10 11 11 6 2 6 5 3 4 2 2 3 3 3 4 3 2 3 3 5 7 7 7 9 11 11 11 10 10 11 11
26 20 10 7 8 9 10 7 7 13 11 10 11 8 5 3 3 2 1 1 2 4 3 4 6 7 7 7 3 2 1 2 2 3 2 2 4 3 2 0 2 4 4 5 2 1 4 5 3 1 1 6 9 9 8 8 11 10 7 6 1 4 6 4 3 4 2 0 1 1 4 5 3 3 4 4 6 7 8 8 10 11 11 11 10 10 11 11
24 19 8 5 8 9 8 9 12 13 10 10 9 5 3 2 2 2 2 1 3 3 3 3 6 7 7 7 5 2 1 1 2 5 4 2 2 3 2 2 3 4 2 3 1 1 4 3 0 1 2 5 9 7 3 2 6 7 5 6 2 3 2 1 0 0 1 1 4 4 5 6 5 5 5 6 8 9 8 9 10 11 12 11 10 11 11 11
22 16 7 6 9 9 8 9 11 9 10 10 7 3 3 3 1 1 3 3 1 2 3 5 6 6 6 6 4 3 1 0 2 3 2 3 2 1 1 3 4 3 2 4 5 2 2 1 1 3 2 3 7 5 4 4 6 6 5 5 3 1 2 2 1 1 2 1 4 6 4 4 6 4 6 8 8 9 9 9 11 11 11 11 11 11 11 11
19 12 7 7 11 10 9 9 8 7 9 8 5 3 5 3 4 2 3 5 2 2 3 2 4 7 6 3 4 3 2 1 3 3 2 2 3 1 1 2 5 4 2 1 3 1 1 1 1 3 3 3 6 6 6 6 6 5 5 4 4 3 3 4 3 3 3 2 4 5 2 3 3 2 4 8 7 9 10 9 10 10 9 9 9 10 10 11
17 10 8 10 12 10 9 8 5 6 7 6 4 4 3 3 4 3 4 3 3 6 4 1 3 6 4 1 3 3 2 1 2 4 2 1 2 3 2 2 4 4 1 0 2 1 2 2 1 2 3 4 5 5 7 8 6 4 4 3 4 5 4 3 2 3 4 3 2 2 3 5 4 3 2 5 6 8 9 10 10 10 10 10 9 9 10 10
19 9 8 13 11 6 6 6 3 4 5 5 4 3 3 3 4 4 4 4 4 6 8 4 1 5 3 3 1 0 3 1 2 1 2 1 2 2 3 1 4 6 5 2 2 2 2 3 4 4 2 2 5 5 6 7 4 5 4 3 4 4 5 3 1 1 1 1 1 2 4 5 5 2 1 4 8 9 8 9 11 11 12 11 10 9 10 11
21 12 10 11 7 7 7 3 2 4 5 5 4 3 3 3 4 5 4 6 4 2 8 5 2 3 4 1 2 3 3 1 1 1 2 1 3 2 5 3 4 5 6 4 2 2 3 3 8 10 4 3 2 4 4 6 5 5 3 4 2 2 2 3 2 1 2 2 2 4 5 2 2 1 3 5 10 10 9 10 10 11 11 11 11 11 12 12
18 12 10 7 5 8 6 3 3 5 5 4 3 2 3 5 7 6 5 5 5 3 6 4 2 2 6 3 1 3 2 1 0 1 3 1 2 3 5 4 2 2 5 7 4 3 5 3 5 8 3 3 2 2 4 5 4 4 3 2 2 2 2 3 3 3 3 3 3 2 6 3 2 2 5 8 10 10 11 9 9 10 11 10 10 11 12 11
12 7 4 2 5 8 5 5 5 4 4 5 2 1 2 5 7 6 5 4 5 4 4 4 3 1 4 5 5 2 1 1 2 3 3 1 1 2 2 2 3 2 8 10 6 3 5 3 2 7 7 3 2 2 2 3 2 3 2 2 3 2 3 3 3 2 3 3 4 3 1 2 4 5 8 11 10 10 11 9 8 10 11 11 10 11 11 11
10 5 1 4 7 7 6 5 5 4 4 3 3 2 2 4 4 4 6 5 5 3 3 4 2 2 2 4 6 3 1 3 3 4 3 1 1 1 2 4 4 7 10 9 7 5 4 3 1 5 7 6 3 3 3 4 3 3 2 3 4 3 2 2 2 1 3 4 3 5 3 2 3 4 8 11 10 11 12 11 9 8 9 10 10 11 11 11
8 5 1 3 6 6 6 6 4 3 2 1 3 4 5 4 3 5 5 2 3 1 3 5 4 4 3 2 4 3 2 5 3 2 3 1 1 1 4 8 7 7 8 7 5 5 4 4 3 3 4 3 3 5 5 6 5 4 3 3 3 3 3 3 2 1 4 4 3 5 4 3 3 5 6 8 10 10 12 13 10 6 7 9 9 10 11 10
6 4 2 4 6 5 5 6 3 2 3 3 3 5 3 3 3 5 2 1 3 1 1 5 4 4 3 3 5 3 2 6 3 1 2 2 4 3 6 8 6 5 5 5 2 5 4 4 4 2 1 2 7 4 4 5 4 4 2 2 3 3 3 4 3 4 5 5 4 5 4 2 4 6 6 7 9 11 11 12 11 6 5 6 7 9 10 10
5 4 3 5 6 5 5 5 2 1 4 4 3 4 2 3 2 4 2 2 3 2 1 3 3 3 2 3 6 4 3 5 5 3 3 1 7 7 6 6 4 3 5 4 2 5 4 3 3 2 1 3 6 4 6 5 4 2 1 3 4 3 3 4 4 3 5 4 4 5 4 2 4 6 7 7 9 10 9 10 12 7 5 6 8 8 10 10
5 6 1 3 2 4 5 4 4 2 5 4 2 1 1 2 4 6 5 3 1 3 2 2 3 2 2 3 6 5 3 3 5 4 4 4 4 8 5 6 3 3 4 3 4 4 3 3 3 4 2 2 3 2 5 5 3 1 1 3 3 3 4 4 3 3 3 4 4 5 4 2 4 6 7 8 10 11 10 11 11 7 5 6 8 8 10 9
5 6 4 3 2 3 2 3 5 3 4 3 1 2 1 0 3 4 5 4 2 4 3 2 3 4 4 3 5 6 2 3 4 3 3 5 2 7 6 6 2 2 4 6 5 4 3 4 4 4 4 3 2 2 2 2 1 1 1 2 2 3 4 4 3 4 3 5 5 5 4 5 6 7 8 9 10 10 10 12 11 8 6 7 8 8 9 9
4 3 3 1 1 4 1 2 4 4 3 1 2 2 1 1 3 3 2 4 2 3 4 3 4 5 2 3 5 6 4 3 2 3 4 6 0 6 6 5 3 1 6 6 4 4 3 5 5 5 6 4 3 4 4 3 3 3 2 2 2 2 4 3 3 3 3 5 4 2 4 8 9 8 8 9 10 8 10 11 10 9 7 7 7 8 9 8
3 3 4 4 3 4 2 4 5 5 4 2 2 1 2 3 2 4 1 2 1 0 3 3 4 4 1 2 5 5 3 3 4 4 6 6 2 5 6 4 4 4 4 2 3 3 3 5 6 6 8 7 6 6 7 5 5 6 5 4 3 2 3 3 4 4 4 4 3 4 7 8 9 9 8 9 10 9 10 10 8 9 8 8 8 11 11 11
3 2 2 2 3 4 4 4 5 6 4 3 1 1 3 5 3 0 1 1 1 1 3 2 3 4 3 3 4 4 4 4 4 4 4 5 4 2 5 4 6 6 1 3 2 2 4 6 7 8 9 9 9 9 8 7 6 6 6 6 4 4 4 4 5 4 3 4 5 7 8 7 7 8 9 9 9 9 10 11 9 9 8 9 10 11 11 12
5 3 2 2 4 6 4 3 4 5 3 3 2 2 3 4 4 2 1 1 1 2 3 3 3 3 4 4 4 4 4 3 4 5 5 5 6 4 1 2 5 6 4 4 1 1 3 3 5 7 9 10 11 9 8 8 8 6 7 8 7 5 5 5 6 4 4 6 6 6 8 7 6 6 8 9 9 8 9 10 10 8 8 9 10 11 11 12
5 4 4 3 6 5 2 1 4 4 1 1 3 2 2 4 4 2 2 3 2 2 3 4 4 3 4 5 5 6 5 4 4 6 6 5 5 4 3 2 1 2 3 3 1 0 2 3 6 7 7 9 10 8 7 8 8 8 9 8 8 7 5 7 6 3 4 6 5 5 7 6 4 5 8 9 9 9 9 9 9 8 7 8 10 11 11 11
5 4 4 5 5 3 3 4 3 3 2 3 3 1 2 4 3 4 4 4 3 4 2 3 4 3 4 5 6 7 6 5 7 7 5 5 5 3 3 3 4 3 3 3 3 2 3 5 7 7 7 7 7 5 5 7 8 10 10 8 9 9 6 5 4 3 3 4 4 6 5 4 5 7 8 9 9 10 10 10 8 6 7 8 10 11 11 11
6 4 3 4 4 4 5 4 3 3 2 1 1 2 1 2 2 3 5 3 2 4 4 3 3 3 4 7 7 6 5 6 8 7 5 6 8 7 5 6 5 5 5 4 4 4 4 5 6 6 6 7 7 4 3 5 8 7 5 6 8 9 6 5 5 5 4 3 3 4 4 5 7 8 8 9 10 9 10 9 6 6 7 9 10 10 10 11
Wind_Direction
354 353 351 350 349 348 346 344 342 343 344 345 344 344 340 338 338 337 334 329 331 332 335 347 347 348 353 297 284 293 276 276 280 244 219 51 56 70 76 105 223 257 259 269 274 271 245 220 222 221 226 226 217 234 230 220 220 223 224 235 248 248 251 256 258 268 279 300 291 30 55 4 298 295 324 306 270 263 268 277 289 289 301 298 274 181 128 134
354 352 351 349 348 347 345 343 343 346 350 347 346 345 342 340 341 341 339 335 337 340 346 355 352 347 291 284 299 308 305 287 276 261 96 77 99 96 78 142 243 260 268 279 282 269 246 242 223 206 223 235 213 221 222 200 202 230 238 233 242 249 258 263 268 289 307 335 318 345 65 31 332 312 320 302 286 287 270 263 258 260 272 264 263 268 148 150
354 352 351 349 348 346 344 346 347 353 355 350 350 348 344 342 342 343 341 339 341 346 353 357 353 315 281 298 305 317 320 291 270 115 84 104 115 96 100 282 268 264 270 282 291 288 281 292 275 219 231 239 217 206 205 186 191 224 239 243 244 242 257 269 296 327 322 343 323 328 9 355 346 324 298 294 293 296 297 298 280 260 256 252 248 260 245 201
353 352 351 349 348 346 347 350 351 356 355 353 353 349 346 342 340 342 340 341 342 350 358 360 353 298 289 294 297 321 311 287 268 93 100 127 108 91 13 340 285 267 281 288 288 284 288 287 277 259 251 248 228 204 210 212 198 216 225 243 253 250 276 286 333 5 332 342 330 324 333 317 324 318 297 296 288 282 279 269 272 275 277 274 252 249 260 238
354 353 352 350 349 348 349 353 354 355 354 354 351 347 344 340 340 340 338 339 342 353 356 356 347 296 283 271 286 319 303 287 100 95 111 125 113 80 1 310 281 282 293 297 285 268 266 260 259 257 252 260 244 207 227 231 200 237 251 264 271 275 294 296 328 17 349 336 324 312 311 307 309 298 288 282 275 271 276 278 283 279 281 296 283 273 332 64
354 353 352 350 349 349 352 355 354 354 355 353 347 344 343 339 339 339 338 338 339 349 351 355 341 300 282 278 299 306 291 318 109 114 115 127 131 95 308 288 285 286 280 284 278 262 249 243 244 243 238 252 252 229 234 221 170 245 264 266 269 277 298 299 314 4 20 324 303 300 306 306 301 297 292 281 277 277 282 293 305 308 317 326 326 323 0 63
354 353 352 351 350 353 356 354 354 355 355 350 343 342 341 338 339 340 337 330 337 346 344 347 337 317 304 302 309 270 258 97 112 120 109 132 83 340 297 290 287 287 278 275 274 266 257 245 239 245 242 240 252 247 234 197 180 252 265 269 270 278 306 303 302 321 322 297 292 295 298 293 290 293 287 277 271 268 277 290 298 304 314 319 319 314 332 44
354 353 353 353 354 358 359 355 355 356 354 347 341 340 339 337 340 341 329 320 343 344 337 339 342 339 331 318 287 258 238 95 117 136 99 87 251 307 294 278 271 283 290 287 296 297 286 259 257 283 261 254 301 264 222 60 257 254 251 259 273 277 279 281 287 292 287 285 285 277 273 271 272 275 275 276 274 270 285 294 289 284 292 309 301 302 329 15
354 354 354 356 359 359 359 357 356 355 352 346 341 339 338 337 341 341 311 315 334 339 335 331 338 340 336 310 271 271 102 88 116 151 132 98 245 277 283 279 271 279 291 281 274 284 289 282 287 341 299 295 337 280 268 286 253 276 261 258 298 299 276 271 268 269 267 265 266 265 263 260 257 260 264 266 271 279 276 263 268 278 297 323 305 309 336 337
357 357 356 359 0 358 357 355 355 353 349 345 341 338 336 336 344 344 292 306 326 336 329 323 334 334 317 271 269 289 106 109 127 151 144 303 263 269 276 286 301 293 299 284 261 288 308 321 324 331 297 289 290 268 270 271 308 345 294 285 309 295 284 280 276 272 267 266 266 268 267 266 261 256 255 252 246 247 262 257 260 286 290 330 327 325 331 313
359 358 357 360 360 357 355 353 353 350 347 344 340 336 332 332 342 341 289 306 316 321 320 317 325 329 302 270 279 2 100 242 173 162 152 244 255 275 302 312 300 291 302 280 256 305 305 318 329 291 274 318 295 264 248 254 307 317 286 288 284 276 273 262 264 265 263 263 257 266 274 269 262 253 251 261 242 176 284 306 302 298 325 14 352 334 322 305
359 359 358 358 357 356 352 349 349 348 346 343 340 335 326 328 340 332 293 300 307 309 311 309 319 335 305 274 290 46 354 248 30 284 214 229 251 269 334 306 274 287 300 294 298 32 294 301 306 270 277 333 290 278 280 242 298 288 269 277 267 261 250 233 237 244 252 260 250 294 289 261 244 237 235 244 235 92 41 312 295 298 8 20 335 317 309 308
359 359 360 357 355 354 350 348 346 347 346 344 344 337 319 311 321 305 300 297 302 301 300 303 319 330 292 286 69 45 302 191 106 251 206 250 260 190 2 300 276 281 282 303 332 13 290 286 279 276 297 293 265 330 340 258 272 274 250 255 264 263 239 209 198 221 239 153 145 296 280 268 240 216 218 222 158 63 33 328 318 311 33 12 312 321 309 296
358 360 360 356 354 352 349 348 346 347 346 346 347 338 315 228 242 261 300 297 294 295 295 299 310 307 276 289 83 55 287 229 211 211 228 283 259 207 186 219 238 255 252 288 307 304 283 280 264 271 278 265 282 326 288 231 240 259 247 231 243 269 215 163 168 205 215 136 197 251 252 287 250 180 187 114 79 53 350 297 289 283 307 318 302 306 290 277
359 359 358 356 354 351 350 350 347 347 347 347 348 339 278 226 235 232 279 294 282 286 295 296 288 261 261 197 111 68 193 215 229 258 315 308 280 232 184 223 219 225 258 261 271 274 269 266 252 262 252 227 256 277 256 229 218 227 249 240 240 284 114 143 168 197 206 128 188 247 264 289 72 116 114 81 79 60 306 271 255 260 274 288 281 275 279 296
1 359 357 355 354 352 351 351 350 348 349 347 345 340 254 232 244 252 270 265 260 275 289 289 250 222 260 80 125 129 205 214 316 332 293 317 307 328 116 260 257 207 236 246 262 263 243 248 249 268 271 222 230 249 250 246 224 204 249 282 311 282 171 151 178 193 202 225 215 232 267 279 119 122 123 120 146 197 240 248 238 253 264 268 265 262 273 287
1 358 356 354 354 354 351 353 353 350 351 349 342 342 261 239 242 246 254 248 257 265 257 269 263 235 248 350 163 178 203 186 358 289 240 345 316 325 289 253 247 219 226 220 239 242 226 234 238 243 248 233 249 264 268 302 308 279 255 310 335 287 295 170 185 179 161 199 250 246 255 272 268 158 138 160 182 188 231 241 233 257 270 278 294 306 295 291
1 358 355 353 353 354 352 355 355 349 351 352 346 349 323 271 257 257 261 263 270 270 258 259 275 275 217 246 233 32 33 46 358 294 216 302 285 276 275 279 292 241 235 220 218 230 216 217 238 250 255 239 276 286 284 346 300 281 266 293 297 279 289 283 199 143 156 196 237 261 257 275 283 255 220 230 202 169 257 260 266 293 310 311 320 304 300 303
360 357 354 352 353 354 353 356 356 351 351 355 350 339 319 283 265 264 259 248 229 254 278 220 238 266 117 54 13 28 15 353 280 237 219 262 270 255 248 256 269 234 244 226 197 210 226 223 227 297 307 269 310 316 319 329 302 296 306 296 288 271 250 277 283 151 192 221 233 258 269 274 274 266 268 277 300 305 278 289 306 311 306 297 288 278 310 310
360 356 352 351 352 352 352 354 358 353 346 346 338 320 297 278 237 228 237 230 224 264 304 86 261 318 88 32 353 342 309 230 223 221 290 301 261 260 239 225 230 219 251 271 199 176 262 265 249 241 269 294 335 334 319 315 305 296 293 277 271 267 257 298 293 213 170 179 247 259 272 271 270 278 289 297 311 298 292 311 311 308 304 306 325 347 9 357
359 354 352 351 349 351 351 351 359 358 346 335 319 301 337 11 336 356 291 241 227 274 301 15 311 304 63 357 326 317 272 225 197 126 4 308 270 269 250 229 253 234 252 292 292 107 313 287 297 304 326 343 326 309 294 286 286 285 280 269 261 268 317 358 312 288 126 202 264 275 274 271 272 284 294 289 298 294 284 298 343 2 7 16 22 17 13 9
359 354 350 349 348 350 349 342 348 360 355 332 310 314 20 18 339 336 326 273 224 235 261 297 265 237 81 356 300 309 291 254 188 160 168 284 269 274 300 285 280 256 229 245 262 291 324 301 259 294 348 331 290 278 272 274 277 272 264 267 271 293 342 359 305 297 320 275 276 285 277 288 315 339 344 334 5 21 31 55 48 36 32 24 23 21 9 1
358 353 346 349 347 346 345 334 323 327 332 329 350 7 359 358 338 329 309 283 256 207 217 226 272 305 54 334 294 310 290 273 209 137 70 319 286 295 292 267 261 291 293 252 251 225 290 308 290 319 333 294 290 284 261 267 273 272 285 292 267 233 273 311 275 278 288 269 285 313 311 330 352 14 8 353 61 66 57 62 57 46 37 22 14 14 9 357
355 351 345 346 345 345 341 328 315 311 306 324 12 16 343 343 347 341 319 279 258 226 218 37 316 353 20 322 309 289 277 279 306 63 35 313 312 343 308 298 316 359 305 283 292 153 188 308 325 306 291 272 290 291 280 290 288 330 14 327 299 276 283 295 268 253 256 267 354 12 9 353 349 14 15 8 60 65 57 56 47 39 34 23 10 2 359 352
353 350 344 343 346 347 338 326 334 337 321 345 11 1 341 343 347 342 324 279 253 229 73 38 271 38 17 293 260 281 284 278 317 56 23 327 333 327 308 330 348 259 278 280 304 314 166 316 295 279 287 282 281 292 358 350 305 2 30 305 303 320 321 308 299 284 262 284 49 57 57 329 323 10 27 25 73 61 47 43 29 22 18 6 358 354 351 344
350 348 345 342 346 349 342 338 346 332 325 18 7 348 342 342 338 336 314 266 246 217 110 249 263 30 337 276 278 306 318 217 156 38 354 321 328 300 297 329 249 248 303 294 290 276 107 355 310 302 294 280 267 302 34 3 312 337 359 309 308 307 304 298 292 288 266 264 58 113 146 277 303 12 27 51 95 62 36 32 23 13 10 1 354 353 343 331
349 347 343 342 345 348 353 349 336 332 348 10 352 342 342 336 330 326 289 254 243 303 342 299 353 347 272 320 335 300 329 103 232 343 331 340 338 290 288 300 269 255 289 281 297 298 329 353 322 308 290 272 273 50 35 2 320 299 317 320 310 291 293 300 289 285 257 128 43 290 191 146 99 60 23 41 65 45 31 28 19 8 6 7 360 349 332 325
348 345 338 342 341 334 337 332 331 343 3 348 339 340 339 327 319 301 269 290 229 255 332 58 14 298 269 356 304 273 321 129 255 332 297 297 314 277 282 312 306 321 305 287 302 263 275 317 337 312 302 306 356 3 3 334 306 301 316 312 300 288 292 297 282 275 211 130 163 253 200 148 86 137 89 55 43 26 24 18 15 13 5 5 2 349 335 331
347 343 333 337 338 322 321 317 312 333 350 343 338 339 332 315 311 274 235 335 318 202 1 41 10 299 305 319 266 261 316 179 290 350 256 256 241 247 292 0 318 307 298 275 263 218 251 335 340 318 321 349 353 324 287 286 295 288 275 263 254 272 284 281 279 294 349 272 255 252 153 126 87 45 73 48 30 18 12 10 17 13 3 3 2 350 344 340
344 341 329 331 343 336 319 290 284 334 347 343 337 331 311 292 283 243 219 314 289 27 338 298 352 5 328 302 264 257 310 310 325 297 292 304 236 228 254 38 299 287 280 268 257 116 124 244 277 301 341 333 322 299 269 264 277 270 267 263 231 273 312 301 330 358 348 234 231 287 26 104 148 127 70 36 28 21 8 10 14 6 2 2 355 346 347 343
343 338 321 312 336 338 317 300 336 350 346 340 334 318 289 271 232 253 351 209 264 15 345 295 6 11 330 310 276 202 314 351 311 256 250 258 249 262 264 137 321 292 257 248 224 143 209 201 211 262 341 311 309 302 267 243 264 276 301 314 42 64 352 330 10 12 351 333 62 31 48 69 113 119 90 59 44 33 18 12 7 2 2 0 352 348 346 341
341 334 311 285 316 320 305 317 339 339 337 334 322 301 273 255 214 283 356 223 253 10 4 318 6 359 324 307 278 262 37 47 316 301 316 321 319 350 349 28 337 301 259 262 310 2 242 220 4 220 212 311 321 323 306 280 293 304 347 348 17 77 357 312 191 16 166 318 12 52 68 68 88 104 90 64 45 32 24 19 9 3 3 0 355 353 348 343
340 332 309 274 296 298 286 310 328 327 331 324 300 269 260 282 349 341 4 31 292 358 353 338 350 326 311 312 309 338 352 238 311 302 319 317 296 230 124 48 357 332 28 331 331 351 274 305 323 246 193 336 335 346 12 8 326 320 355 357 12 61 296 297 241 158 135 133 63 74 73 91 115 103 60 55 44 29 23 22 18 10 7 7 0 358 354 348
339 326 311 286 282 277 272 296 321 322 322 311 285 269 266 307 27 1 8 40 20 325 336 322 308 281 271 314 334 310 250 301 319 279 230 262 269 203 128 45 8 3 91 294 299 314 290 290 276 310 355 353 347 4 7 336 305 322 8 6 21 25 339 346 3 16 21 16 70 88 75 78 133 170 44 46 42 38 25 12 22 21 10 9 6 3 357 348
337 320 312 297 275 263 266 281 304 319 316 301 281 287 296 0 20 0 9 12 334 341 327 261 312 289 228 170 310 276 221 19 327 289 317 306 308 3 340 356 8 346 20 115 269 225 242 250 246 355 343 328 346 2 352 336 309 321 357 13 39 20 335 334 4 4 5 354 16 80 85 85 123 180 91 45 31 39 27 3 8 15 7 8 8 4 359 350
337 319 284 279 272 288 309 293 297 314 307 297 295 330 27 23 358 13 12 314 336 352 311 295 351 287 241 134 333 72 132 310 324 331 327 342 65 15 317 30 26 339 345 359 273 259 244 262 291 286 241 330 347 331 337 354 333 308 338 33 39 359 325 318 183 186 236 273 292 102 104 107 113 121 308 25 24 18 24 15 3 1 1 4 2 357 356 351
335 323 283 272 291 342 339 319 294 287 286 297 315 353 37 30 5 22 16 331 350 343 297 307 118 281 307 111 134 97 114 271 349 74 289 341 70 333 299 19 34 339 346 350 308 320 318 264 270 273 233 132 323 295 327 353 342 327 5 37 349 294 319 319 288 260 246 274 324 105 122 144 112 108 299 24 27 3 12 23 5 358 359 358 357 354 354 352
325 312 293 282 320 339 335 323 297 278 275 285 299 357 25 45 38 30 27 352 335 302 296 315 89 321 322 340 76 80 70 314 195 213 261 200 104 306 313 354 332 262 12 359 325 306 311 275 258 285 295 132 216 277 329 330 356 12 6 15 325 295 352 335 323 330 310 313 331 120 138 133 44 17 346 17 19 356 3 12 359 0 360 354 353 353 354 353
302 280 288 341 337 332 332 323 309 283 272 289 322 52 20 47 46 24 30 11 321 309 315 333 21 344 310 331 342 1 178 273 288 282 269 188 153 269 299 326 283 322 23 359 326 320 314 293 294 308 317 358 342 343 345 306 15 28 334 23 21 335 347 342 319 314 310 318 321 304 178 89 43 2 349 1 4 353 353 356 1 5 359 355 354 352 356 354
299 274 328 28 336 327 332 317 297 267 258 299 12 56 37 45 39 12 36 23 320 310 328 335 347 309 320 336 319 316 275 260 281 306 304 107 129 225 30 7 346 5 6 337 314 340 321 285 316 305 319 9 5 309 356 6 4 3 355 24 12 345 354 322 285 295 323 320 316 313 327 73 71 358 346 354 357 354 352 352 3 7 358 358 356 350 351 350
300 289 49 19 337 335 329 299 268 268 277 1 39 52 34 18 358 2 37 27 295 331 339 317 309 305 320 309 293 325 329 273 263 303 303 1 263 246 54 31 11 7 348 315 321 12 349 310 327 312 328 13 253 269 351 17 1 358 12 18 354 357 5 318 292 23 348 326 310 309 327 55 47 351 353 1 350 350 356 350 345 1 8 1 355 349 347 346
279 299 51 20 349 349 322 293 275 354 44 52 58 64 28 326 338 344 347 279 302 341 342 306 309 311 305 299 304 325 303 275 268 275 280 27 23 29 72 52 18 354 319 293 342 35 10 301 301 318 30 265 257 275 30 29 359 349 16 28 347 359 17 333 332 358 336 327 318 307 315 64 39 348 351 14 355 345 353 343 333 360 29 4 357 351 343 345
280 318 69 55 2 334 298 287 284 54 79 57 41 67 30 330 344 300 274 41 342 306 323 307 310 327 329 316 308 320 343 299 300 332 305 38 70 70 73 66 44 332 309 297 0 23 348 286 297 316 129 229 272 329 16 354 326 294 53 48 3 1 22 343 336 339 319 331 339 316 314 88 59 350 342 14 1 338 342 339 336 6 43 9 3 355 339 346
312 306 218 111 14 302 295 323 349 36 87 68 21 68 88 357 359 322 319 35 8 269 300 301 289 294 276 269 281 302 1 309 300 353 333 305 88 97 74 62 63 307 340 1 1 358 319 306 333 305 257 227 265 337 353 324 297 271 20 37 4 355 5 339 319 292 297 350 348 313 311 35 32 348 343 7 353 330 336 340 339 4 42 18 5 354 338 342
308 280 242 162 177 269 299 4 357 6 86 94 267 253 219 121 41 345 314 323 333 323 324 290 271 273 278 307 295 286 272 246 289 352 329 294 91 109 90 76 82 304 41 46 352 329 304 307 325 308 304 322 296 295 331 321 303 318 6 4 342 353 1 348 319 288 310 358 342 315 321 343 349 348 0 2 336 323 340 343 339 353 24 25 7 346 336 339
321 304 301 21 312 282 294 49 355 349 36 47 253 273 323 197 142 129 321 325 3 343 314 289 268 264 286 338 292 267 244 207 257 310 300 289 241 112 102 109 136 21 39 36 329 303 296 290 289 288 292 302 304 297 304 315 309 300 292 290 302 342 348 329 303 307 338 331 319 2 353 329 331 349 3 343 320 336 356 343 340 350 7 27 4 334 334 346
302 343 347 0 323 305 16 40 359 358 4 323 271 312 319 282 198 150 147 334 41 7 290 300 289 275 286 307 276 270 270 230 225 263 289 296 280 116 106 117 125 91 46 357 273 283 292 284 292 295 288 294 299 291 295 297 289 290 288 274 264 279 309 302 292 315 333 303 304 12 357 329 327 340 343 328 331 360 354 333 347 0 4 24 3 334 339 354
303 332 21 27 302 312 20 24 351 349 336 302 280 301 289 289 296 187 136 23 40 186 221 237 280 283 285 285 279 279 273 257 255 264 274 288 282 147 117 109 113 116 145 263 260 320 299 277 291 296 291 301 301 290 294 286 270 275 279 276 266 245 257 269 272 292 311 290 303 337 339 325 317 322 328 332 351 5 339 332 359 5 3 15 357 335 343 356
340 332 41 43 298 304 4 25 334 324 324 317 297 252 257 279 304 338 113 136 277 226 236 266 278 264 259 263 269 275 275 273 290 297 299 309 312 311 322 68 109 142 206 252 247 325 302 291 314 310 302 302 294 287 289 280 271 271 267 273 278 257 246 259 263 277 294 287 298 322 322 307 296 313 333 344 2 4 333 332 347 350 358 4 345 337 349 358
350 346 5 340 295 305 356 336 297 293 268 274 274 252 242 268 302 336 206 212 259 252 243 278 289 260 248 256 258 264 274 285 290 301 315 318 317 312 297 319 17 188 222 265 297 231 259 307 329 320 301 293 289 289 289 280 276 274 270 275 282 272 262 267 269 270 280 290 308 311 295 286 293 340 353 355 359 346 327 330 339 345 357 351 341 343 349 354
346 329 325 302 295 322 297 261 273 289 258 231 235 219 267 269 318 354 311 281 296 293 268 279 294 276 249 253 252 254 269 287 277 274 289 286 280 299 319 332 344 326 268 266 280 236 234 286 307 301 290 295 302 303 297 294 285 272 266 260 254 248 250 272 279 269 271 290 298 287 283 298 329 356 1 352 343 331 330 337 340 346 351 346 347 347 345 349
327 284 270 282 290 300 289 273 265 280 290 261 184 161 245 310 15 357 311 286 274 302 338 355 309 271 242 245 254 270 291 295 282 276 270 251 247 253 254 247 254 272 275 281 290 273 264 283 296 297 298 300 300 294 289 299 292 280 279 271 243 221 219 252 263 255 261 265 266 280 295 304 325 359 2 338 333 333 334 337 343 356 356 352 349 343 343 348
Height
815 814 812 810 809 808 806 805 803 802 801 800 799 798 797 796 794 793 792 790 790 788 788 787 786 786 786 785 784 784 784 783 783 782 782 782 781 782 782 782 782 782 781 780 779 778 775 773 772 771 771 770 770 768 765 762 760 766 775 783 784 778 771 762 757 752 750 749 740 736 739 744 747 743 738 741 745 746 747 747 745 741 737 737 737 737 742 749
815 814 812 810 809 807 806 804 803 802 801 800 798 798 796 795 794 792 791 790 789 788 788 787 786 786 786 785 785 785 784 783 782 781 781 782 782 782 782 782 782 781 781 780 778 775 772 770 767 767 770 769 767 764 763 760 762 770 774 780 780 772 762 752 749 746 746 752 747 737 741 748 752 750 745 752 755 748 751 752 749 748 744 740 737 737 743 747
815 814 812 810 809 807 806 804 803 802 801 800 798 797 796 795 793 792 791 790 789 788 788 787 787 786 786 786 785 785 785 783 781 781 781 782 782 782 782 782 782 781 780 779 776 773 771 768 765 765 768 769 764 762 764 761 763 769 772 778 773 761 757 749 746 748 748 751 752 746 745 751 753 751 751 757 760 755 757 757 753 752 748 743 739 738 741 744
815 814 812 810 808 807 805 804 803 802 800 800 798 797 796 794 793 792 791 790 789 789 788 788 787 787 786 786 785 786 785 783 781 781 782 782 782 782 782 782 781 781 780 778 776 773 771 769 766 766 768 769 762 760 764 762 763 765 768 775 764 753 757 752 747 752 753 753 756 755 755 757 754 752 755 759 764 763 758 755 753 751 747 743 740 738 740 741
815 813 812 810 808 806 805 804 802 802 801 799 798 797 795 794 793 792 790 790 789 789 788 788 787 787 786 786 786 785 786 787 784 781 782 782 783 783 782 782 781 780 779 778 776 772 771 769 767 768 770 770 763 761 765 758 758 765 764 765 759 753 758 754 749 754 758 760 762 761 762 760 755 755 757 759 766 765 755 749 746 744 743 742 740 740 740 743
815 813 811 809 807 806 805 804 802 802 800 799 798 796 795 793 792 791 790 790 789 789 788 788 788 787 787 786 786 786 788 788 783 781 783 782 783 783 782 782 780 779 779 778 774 770 769 767 768 770 770 769 765 762 762 754 756 769 766 761 759 755 757 756 753 757 761 765 767 765 761 758 759 761 757 758 762 758 750 747 745 742 742 742 742 743 744 748
815 813 811 809 807 806 804 804 803 801 800 799 797 796 794 793 792 791 790 790 789 789 789 788 788 787 787 786 786 786 786 783 780 781 782 782 783 782 782 781 780 779 777 775 771 768 767 767 768 767 768 768 764 760 757 754 758 770 771 763 759 755 758 760 757 759 762 766 766 763 762 761 765 765 760 759 757 751 748 747 746 745 744 746 747 748 748 751
814 812 810 809 807 806 805 804 803 801 800 798 797 795 793 792 791 791 790 790 789 789 789 788 788 788 787 787 786 784 782 780 780 782 782 782 783 781 782 780 779 778 775 773 770 768 767 768 767 765 769 766 761 760 757 761 766 768 769 762 757 757 760 761 761 761 762 764 763 763 766 765 764 763 762 761 754 749 748 749 748 748 748 749 750 750 750 751
814 812 810 809 807 806 805 804 802 801 800 798 796 794 793 792 791 791 790 790 790 790 789 788 788 788 788 787 786 785 781 779 781 782 781 782 782 782 781 778 778 777 773 772 770 769 769 769 767 766 771 766 763 763 760 768 771 764 763 759 757 761 761 761 762 762 762 762 762 765 767 764 759 761 764 760 754 750 749 750 750 749 751 752 753 753 752 753
814 812 810 809 807 806 805 804 803 801 800 798 796 794 793 792 791 791 790 790 790 790 789 789 788 788 789 787 786 787 782 778 781 781 781 782 782 781 780 778 778 776 773 771 770 769 769 769 766 765 769 767 765 765 762 767 767 761 762 760 760 763 761 761 763 761 761 761 761 766 767 762 757 761 766 757 749 749 749 751 751 751 754 754 755 755 755 755
814 812 811 809 807 806 805 804 802 801 799 797 795 794 793 792 791 791 791 791 790 790 789 788 788 788 788 788 786 785 780 779 780 780 781 782 781 780 779 778 778 776 773 771 770 770 770 770 766 767 770 768 766 765 763 763 763 763 765 766 764 764 762 762 763 762 762 762 760 762 765 762 759 763 765 755 746 748 752 754 754 755 755 756 758 758 757 757
814 812 810 809 808 806 805 804 802 801 799 797 795 794 793 792 792 791 791 791 790 790 789 788 789 788 788 787 784 782 779 779 780 779 780 780 779 779 778 779 778 777 774 770 769 770 772 770 769 772 770 768 770 769 764 759 762 765 766 771 768 763 764 761 761 761 761 762 758 760 771 768 762 762 758 751 747 750 757 759 758 758 758 759 760 760 759 757
814 812 810 809 808 806 805 804 802 801 799 797 795 793 793 793 792 792 791 791 791 790 789 788 788 788 790 786 780 780 780 779 780 779 779 778 778 778 778 778 777 776 776 773 771 771 773 771 771 771 767 768 770 766 764 760 764 767 765 770 770 766 763 757 758 760 759 762 757 765 783 774 756 755 751 747 748 755 762 763 761 760 760 762 762 761 760 758
814 812 811 809 808 807 805 804 802 800 798 797 795 794 794 793 793 792 791 791 790 790 789 788 788 789 791 785 778 780 779 778 779 778 778 777 776 776 776 777 776 776 775 774 773 772 773 771 770 770 767 768 766 762 763 764 766 767 766 766 767 769 762 752 756 760 762 763 756 765 784 772 750 747 747 747 754 761 767 766 764 763 762 763 763 763 761 758
814 813 811 810 808 806 805 804 802 800 798 797 795 795 794 793 793 792 792 791 790 790 789 788 788 788 788 783 778 779 779 778 777 777 777 777 774 773 773 774 774 775 774 774 773 772 772 771 771 772 768 763 764 768 769 767 764 764 772 771 763 766 763 754 755 758 762 762 756 767 780 768 751 749 748 751 758 764 768 767 764 764 763 763 763 762 761 758
815 813 811 810 808 806 805 803 801 800 798 796 795 795 794 794 793 792 792 790 790 790 789 788 785 786 787 782 778 778 778 777 776 777 778 776 775 772 772 774 772 773 774 772 771 771 771 770 770 769 767 764 767 770 769 768 765 761 769 772 765 766 766 761 759 753 756 761 758 766 775 766 755 752 751 755 760 764 766 766 764 764 763 762 761 760 760 759
815 814 812 810 808 807 805 803 801 800 798 796 796 794 794 794 793 792 791 790 790 789 789 787 781 782 784 778 777 777 775 775 776 777 777 776 776 774 773 772 770 770 770 770 771 770 768 769 770 768 765 766 766 765 773 784 783 774 770 772 769 767 765 766 764 753 753 763 764 763 767 764 756 752 753 755 756 760 763 763 763 762 762 761 760 760 759 759
816 814 812 811 809 807 805 804 801 800 798 797 796 795 794 793 793 792 791 790 790 790 790 786 782 789 788 778 776 776 773 775 777 776 777 776 776 774 773 770 768 769 770 770 770 768 768 768 767 769 768 768 767 769 784 793 792 787 778 777 776 770 769 769 764 757 757 764 766 766 767 764 757 753 753 751 749 755 760 760 761 761 762 763 762 762 760 759
816 814 813 811 809 808 806 804 802 800 798 797 796 795 794 793 793 792 790 790 790 791 790 785 783 789 789 778 773 774 774 777 777 776 775 774 774 773 771 771 768 769 772 773 770 766 768 768 768 778 782 777 772 772 779 781 778 779 775 776 778 774 771 765 760 758 758 764 768 769 770 766 761 757 753 750 749 755 759 758 762 763 763 764 763 763 762 762
817 815 813 811 810 808 806 805 802 800 799 797 796 795 794 794 793 792 789 787 786 784 780 777 776 776 778 776 773 775 776 777 775 774 773 772 773 772 768 767 766 767 771 771 769 764 765 773 777 782 784 777 772 771 773 774 772 773 773 775 775 772 770 765 761 756 753 766 771 767 768 766 762 759 755 754 754 757 761 762 765 765 764 764 764 765 765 766
817 816 813 812 810 808 807 805 803 801 799 798 797 795 794 794 796 796 791 785 779 777 776 774 774 774 776 778 775 774 776 774 771 771 774 772 771 773 768 764 768 772 771 768 767 763 767 784 785 777 774 772 772 772 771 773 773 773 774 774 771 770 770 768 767 757 752 767 771 765 768 767 762 761 758 757 760 762 761 764 768 767 767 768 769 770 770 769
818 816 814 812 810 808 807 805 804 802 800 798 797 794 793 796 798 796 794 789 780 776 777 775 774 775 774 777 776 774 776 775 772 770 771 771 772 774 769 766 773 773 767 767 771 773 781 790 783 772 771 772 772 770 770 772 773 772 772 773 776 777 776 776 773 762 758 768 773 769 769 767 764 765 764 763 765 766 762 765 771 773 774 775 776 776 775 774
818 816 814 813 810 809 807 805 804 802 800 798 797 796 796 797 797 794 795 795 786 777 776 776 776 775 775 777 775 775 778 776 775 773 769 772 772 770 771 770 770 770 769 770 774 786 795 789 776 770 771 773 773 768 768 772 771 771 773 777 785 786 784 788 784 771 765 768 772 772 773 776 775 773 772 768 766 767 768 771 775 777 780 781 781 780 780 779
819 816 814 813 811 809 806 805 803 801 801 798 798 799 798 798 797 796 794 793 789 779 774 775 775 776 778 778 776 777 779 773 773 774 771 774 774 770 772 769 768 774 777 772 771 785 793 780 771 772 772 772 774 770 769 774 774 774 779 783 784 779 776 780 779 771 769 770 771 777 789 801 797 788 783 775 769 773 775 777 780 781 782 784 784 784 783 782
819 816 815 813 811 809 806 804 802 801 800 798 800 800 799 799 797 797 796 795 795 784 777 778 776 777 778 778 777 775 773 771 771 774 773 774 776 776 774 770 772 780 780 773 774 784 786 775 769 773 773 770 773 775 774 776 780 781 782 780 775 773 772 772 771 771 778 786 782 784 808 824 811 796 792 787 782 782 782 783 786 786 785 786 787 787 786 784
819 817 815 813 812 809 806 804 802 801 799 799 801 800 799 800 797 798 798 802 804 790 783 784 781 781 781 778 776 771 777 779 771 771 774 776 776 777 778 774 773 779 778 774 777 781 779 773 770 774 775 771 773 779 776 774 783 788 782 773 771 772 773 773 773 776 786 794 784 781 808 829 819 802 795 793 792 790 788 789 791 790 790 791 791 791 790 788
819 817 815 814 812 809 807 806 804 802 800 801 802 801 801 799 798 798 802 814 814 794 787 787 782 784 781 776 775 778 790 787 774 774 776 777 776 774 780 780 775 776 774 776 786 785 777 775 776 774 774 774 777 781 777 774 785 788 775 769 773 773 774 774 774 777 783 789 788 788 803 820 822 811 798 794 798 796 795 795 795 793 792 793 794 793 792 789
819 817 815 814 812 811 810 809 807 803 803 804 802 802 801 799 799 798 809 829 817 790 788 787 781 782 777 775 777 780 784 782 783 784 774 776 778 775 780 780 777 778 771 780 798 791 778 780 781 777 777 778 778 777 774 775 782 778 768 769 773 771 772 771 772 777 778 787 800 800 801 817 823 810 797 798 802 804 802 798 796 795 794 794 794 794 792 789
819 817 815 814 812 811 810 810 808 805 805 804 803 803 801 799 801 800 817 832 809 787 790 786 782 784 779 779 781 778 777 778 785 783 772 774 776 774 780 779 779 782 775 779 792 789 779 779 778 777 781 780 777 774 770 774 778 770 765 768 768 769 770 768 771 777 780 792 806 794 785 811 831 815 802 806 808 807 804 798 797 797 796 796 795 795 793 790
819 816 815 814 812 811 810 809 808 806 805 804 804 803 800 801 805 814 830 828 804 792 792 784 785 788 785 787 786 780 779 779 780 778 775 777 775 773 776 775 777 783 780 778 782 783 779 777 776 776 780 778 774 771 767 769 770 764 762 762 765 777 780 775 775 782 793 804 805 789 774 796 827 822 809 809 808 805 803 801 800 800 798 798 797 795 794 793
818 816 815 814 813 812 810 807 806 807 805 805 805 801 802 804 809 824 830 812 799 800 797 790 790 790 790 792 790 784 782 782 780 779 781 780 778 777 778 781 785 787 789 787 783 782 780 779 779 775 775 774 772 771 766 764 763 760 761 760 772 793 799 796 796 802 816 814 793 779 774 787 815 820 808 804 802 800 803 804 804 803 801 800 799 797 795 794
817 815 814 813 813 811 810 808 806 807 805 805 805 801 807 813 815 820 815 801 805 810 803 798 797 795 794 793 789 784 784 787 785 782 783 783 785 785 785 792 796 799 806 800 793 794 789 780 777 774 772 772 774 776 772 769 766 764 764 769 788 811 818 816 813 812 818 807 781 774 782 797 813 812 803 802 801 800 802 803 804 804 803 802 800 798 797 795
817 814 813 813 812 810 810 808 807 808 806 805 804 801 809 819 819 813 804 804 813 809 800 801 800 799 798 795 792 786 786 789 787 785 785 785 788 788 787 788 790 801 816 814 808 812 807 787 777 778 776 771 774 780 784 783 776 771 770 777 793 810 820 818 809 805 805 795 780 776 788 806 815 808 800 801 802 801 800 801 803 804 803 803 801 800 799 797
816 814 813 811 810 809 808 808 807 807 806 805 805 805 812 821 816 807 805 808 808 800 798 802 801 800 798 798 796 789 790 792 785 785 786 786 790 791 790 789 788 795 812 822 818 818 823 813 792 785 782 776 775 778 782 782 778 771 765 772 787 798 811 814 809 808 804 795 786 783 795 814 821 813 802 799 798 799 801 800 801 804 803 802 801 800 801 800
815 813 812 810 809 807 806 808 807 806 807 805 805 807 814 820 814 808 811 809 804 802 800 797 799 803 799 798 795 786 791 796 787 786 789 790 795 796 795 794 791 792 803 819 819 812 825 823 794 781 781 778 778 776 773 778 783 773 762 774 790 792 797 805 807 805 803 806 801 795 803 810 811 808 797 794 797 798 802 802 800 803 803 801 802 801 801 801
814 812 811 808 807 806 806 807 806 806 806 805 808 810 811 814 810 808 812 808 806 810 806 799 802 807 800 797 797 789 790 794 791 792 793 792 795 798 796 793 792 792 796 809 814 810 819 818 793 782 782 777 779 779 772 779 787 778 773 786 790 784 787 799 806 801 803 815 808 797 807 807 806 811 798 792 799 798 800 805 803 804 803 802 804 802 801 801
814 812 810 807 805 806 806 806 806 806 805 807 812 811 805 805 804 805 810 808 806 809 810 807 806 807 802 797 798 795 793 794 794 798 799 796 799 798 793 791 791 793 792 798 807 805 810 815 799 785 784 779 776 777 775 776 779 781 787 788 782 783 788 794 804 806 808 815 803 797 814 817 816 819 802 793 802 801 800 805 806 806 805 805 804 802 802 801
815 813 809 806 806 806 804 805 805 805 805 808 812 807 801 803 804 805 809 810 808 807 810 809 805 806 805 800 797 794 797 801 799 799 800 799 803 800 794 794 792 790 789 793 802 801 801 812 803 784 783 781 772 779 794 788 774 777 783 779 783 798 802 798 805 812 814 817 807 799 808 813 814 812 801 798 804 803 802 805 806 807 806 805 804 803 803 802
815 813 809 805 805 805 803 804 804 803 807 810 811 807 803 804 806 806 809 812 811 811 812 811 807 807 806 804 802 797 798 803 800 797 798 800 804 799 793 795 792 788 790 793 800 800 797 810 813 794 783 783 782 792 807 801 781 776 778 777 783 794 800 801 803 805 811 817 814 806 805 811 812 805 801 802 800 800 802 802 804 806 805 804 804 803 803 802
814 812 808 805 805 805 803 803 804 806 810 808 805 806 805 807 809 807 808 813 813 813 814 812 810 810 807 806 805 799 797 800 798 797 797 796 801 800 793 794 794 793 795 795 798 799 798 806 814 805 789 793 805 804 799 797 791 788 790 792 794 792 793 799 798 795 802 812 816 814 813 815 810 800 800 801 799 799 799 799 801 804 804 804 804 804 803 802
814 812 808 804 805 804 802 803 804 802 805 804 803 807 810 811 812 809 809 813 812 811 812 813 812 811 810 810 806 800 801 800 796 797 797 794 798 801 799 798 800 801 803 802 800 803 805 807 811 813 807 810 814 801 789 792 793 793 796 799 800 798 800 809 807 798 798 806 812 814 817 818 807 797 798 799 799 798 797 798 799 800 803 805 804 804 803 802
814 811 807 804 804 803 803 806 801 796 803 810 809 812 815 814 814 813 812 812 811 810 811 813 812 810 810 811 806 802 804 802 796 796 798 796 798 802 802 802 802 804 806 805 802 804 809 810 811 814 816 818 809 792 787 792 791 793 795 795 797 798 804 816 818 811 807 806 806 807 815 818 808 797 797 798 799 798 796 797 796 797 802 804 803 803 802 801
812 807 803 802 803 801 805 809 802 797 805 811 809 813 815 814 815 815 812 813 814 813 814 815 814 813 813 812 809 805 806 806 799 795 796 796 799 804 803 803 804 804 805 805 804 806 810 810 814 815 813 813 806 796 795 796 797 801 797 794 799 800 803 810 812 813 815 812 812 816 820 818 807 798 796 797 799 798 796 795 794 796 801 802 802 802 801 800
811 806 801 801 802 800 805 809 807 807 810 811 814 817 817 815 817 818 815 815 815 814 817 818 815 815 813 810 809 806 809 813 806 798 799 798 799 803 802 803 805 804 807 811 810 813 815 814 817 819 818 817 815 813 815 811 807 808 802 798 800 800 802 807 807 809 815 814 816 822 822 814 805 798 796 797 800 800 796 794 793 795 799 801 801 801 799 798
813 808 800 798 799 799 802 805 806 811 813 815 819 819 817 819 821 820 818 815 813 814 818 819 816 813 810 810 811 808 806 813 811 804 803 800 799 801 802 805 806 804 808 812 811 812 816 816 818 823 826 827 827 825 820 813 808 807 804 802 802 801 805 810 812 814 819 818 816 820 821 814 804 799 800 802 802 799 796 794 793 793 796 799 800 800 799 797
815 812 805 800 799 797 798 799 802 809 813 817 820 818 819 823 822 819 819 817 815 817 819 818 815 813 813 815 818 813 806 807 811 810 807 802 798 800 801 803 805 807 810 812 811 812 816 815 812 817 822 822 823 820 810 805 809 810 807 805 805 805 806 810 816 819 821 822 819 817 819 818 810 804 804 804 800 796 796 796 794 793 795 798 800 798 796 795
816 816 813 812 809 802 800 803 806 810 813 817 821 819 818 821 819 819 821 818 817 819 820 819 816 816 819 821 821 817 810 807 810 811 810 804 798 799 802 802 804 809 811 812 810 811 817 817 810 811 814 810 809 809 803 803 809 810 809 807 806 806 807 812 818 817 816 823 822 813 814 820 814 806 803 801 797 796 797 796 793 794 796 798 799 797 795 795
815 813 811 815 818 811 810 814 814 813 814 815 818 819 820 820 818 820 822 819 817 819 821 823 821 819 820 821 822 820 815 813 813 810 808 806 801 802 804 803 805 810 812 811 809 811 819 819 810 808 811 807 804 803 800 802 804 805 807 807 806 808 810 813 815 812 812 821 822 814 814 818 813 805 800 796 794 797 798 793 792 795 797 798 799 797 795 795
815 814 810 814 817 812 811 815 815 815 817 817 818 819 821 822 820 818 820 821 821 819 819 823 823 820 819 819 821 823 820 820 821 815 810 809 807 806 808 807 808 809 810 810 809 811 818 817 808 808 812 809 805 801 799 801 803 803 805 804 804 805 807 809 810 809 811 815 814 812 814 814 807 800 796 793 792 795 796 794 793 795 797 798 798 797 795 796
819 820 818 817 816 812 812 814 814 815 817 820 821 818 817 820 820 818 816 819 823 820 818 822 821 818 819 819 821 823 819 818 822 819 814 815 814 811 810 810 809 806 808 811 810 812 819 818 809 809 815 811 801 797 798 801 804 806 805 803 803 804 807 811 810 808 812 814 811 812 816 811 798 791 792 793 794 795 796 795 795 795 797 798 798 796 796 796
821 822 822 822 820 816 813 811 811 815 817 819 820 819 818 819 819 820 817 813 817 818 815 818 820 818 819 820 820 820 816 813 816 814 812 815 815 812 810 809 809 809 810 812 812 813 818 819 810 809 816 811 799 798 802 802 804 807 807 806 806 806 810 815 813 810 811 814 815 815 815 806 793 789 793 796 796 797 797 795 795 796 796 797 798 798 796 796
822 821 820 821 821 816 811 808 807 813 818 817 816 817 820 819 818 823 824 817 814 815 813 816 821 821 821 822 820 816 813 812 811 807 806 809 807 806 807 806 806 810 811 811 812 811 812 816 814 813 818 812 799 796 800 804 811 811 804 799 800 802 806 811 812 808 806 809 815 815 809 801 793 793 798 799 798 798 797 795 795 797 797 798 799 798 797 796